Location: Ohmer (historical)
(38.0096°N, 122.0227°W)
Time: 01:02:15
(UTC+00:00)

CZ-4 R/B - Pass Details

Date: 14 February 2026
Orbit: 676 x 743 km, 98.7° (Epoch: 9 March)

Event Time Altitude Azimuth Distance (km) Brightness Sun altitude
Rises 13:47:08 0° 8° (N) 3,189 7.3 -14.7°
Reaches altitude 10° 13:49:28 10° 5° (N) 2,262 6.4 -14.3°
Maximum altitude 13:54:21 58° 287° (WNW) 862 3.9 -13.3°
Drops below altitude 10° 13:59:10 10° 209° (SSW) 2,233 6.2 -12.4°
Sets 14:01:27 0° 205° (SSW) 3,145 7.0 -11.9°
